Ithaca, NY

8:10 PM EDT on October 22, 2017 (GMT -0400)
Tompkins County

Weather History for KITH - November, 2013

Change the Weather History Date:

Monday, November 4, 2013

  Actual Average Record
Temperature  
Mean Temperature 30 °F -  
Max Temperature 41 °F 54 °F 76 °F (1982)
Min Temperature 19 °F 36 °F 13 °F (1951)
Degree Days  
Heating Degree Days 35    
Moisture  
Dew Point 17 °F    
Average Humidity 58    
Maximum Humidity 93    
Minimum Humidity 32    
Precipitation  
Precipitation 0.00 in - - ()
Sea Level Pressure  
Sea Level Pressure 30.61 in    
Wind  
Wind Speed 4 mph (ESE)    
Max Wind Speed 13 mph    
Max Gust Speed -    
Visibility 10 miles    
Events      
Averages and records for this station are not official NWS values.
T = Trace of Precipitation, MM = Missing Value Source: NWS Daily Summary

Daily Weather History Graph

Daily Weather History Graph

Search for Another Location

Airport or City:

Trip Planner

Search our weather history database for the weather conditions in past years. The results will help you decide how hot, cold, wet, or windy it might be!

Date:

Astronomy

Nov. 04, 2013 Rise Set
Actual Time 6:43 AM EST 4:54 PM EST
Civil Twilight 6:13 AM EST 5:24 PM EST
Nautical Twilight 5:40 AM EST 5:57 PM EST
Astronomical Twilight 5:07 AM EST 6:30 PM EST
Moon 7:52 AM EST (11/4) 5:56 PM EST (11/4)
Length of Visible Light 11h 10m
Length of Day
10h 11m
New Moon, 2% of the Moon is Illuminated
Nov 4
New Moon
Nov 10
First Quarter
Nov 17
Full
Nov 25
Last Quarter
Dec 2
New

Hourly Weather History & Observations

Time (EST) Temp. Windchill Dew Point Humidity Pressure Visibility Wind Dir Wind Speed Gust Speed Precip Events Conditions
12:56 AM 24.1 °F 17.0 °F 17.1 °F 75% 30.57 in 10.0 mi East 5.8 mph - N/A   Clear
1:56 AM 24.1 °F 18.2 °F 17.1 °F 75% 30.58 in 10.0 mi ENE 4.6 mph - N/A   Clear
2:56 AM 22.1 °F 15.9 °F 16.2 °F 78% 30.59 in 10.0 mi ENE 4.6 mph - N/A   Clear
3:56 AM 20.1 °F - 17.1 °F 88% 30.62 in 10.0 mi Calm Calm - N/A   Clear
4:56 AM 19.0 °F - 17.1 °F 92% 30.63 in 10.0 mi Calm Calm - N/A   Clear
5:56 AM 20.1 °F - 17.1 °F 88% 30.63 in 10.0 mi Calm Calm - N/A   Clear
6:21 AM 19.4 °F - 17.6 °F 93% 30.59 in 10.0 mi Calm Calm - N/A   Clear
6:56 AM 19.0 °F - 17.1 °F 92% 30.66 in 10.0 mi Calm Calm - N/A   Clear
7:56 AM 24.1 °F - 20.1 °F 85% 30.68 in 10.0 mi Calm Calm - N/A   Clear
8:56 AM 30.0 °F - 22.1 °F 72% 30.69 in 10.0 mi Calm Calm - N/A   Clear
9:56 AM 34.0 °F 27.2 °F 16.2 °F 48% 30.68 in 10.0 mi ESE 8.1 mph - N/A   Unknown
10:01 AM 35.6 °F 28.6 °F 15.8 °F 44% 30.62 in 10.0 mi ESE 9.2 mph - N/A   Clear
10:56 AM 36.9 °F 31.4 °F 16.2 °F 43% 30.66 in 10.0 mi East 6.9 mph - N/A   Clear
11:56 AM 38.8 °F 34.6 °F 13.1 °F 35% 30.65 in 10.0 mi ENE 5.8 mph - N/A   Clear
12:56 PM 39.9 °F 35.1 °F 13.1 °F 33% 30.63 in 10.0 mi ESE 6.9 mph - N/A   Clear
1:56 PM 41.0 °F 38.0 °F 13.1 °F 32% 30.61 in 10.0 mi Variable 4.6 mph - N/A   Clear
2:56 PM 41.0 °F 38.0 °F 14.0 °F 33% 30.60 in 10.0 mi Variable 4.6 mph - N/A   Clear
3:56 PM 38.8 °F - 15.1 °F 38% 30.61 in 10.0 mi Calm Calm - N/A   Clear
4:56 PM 36.9 °F 33.1 °F 18.1 °F 47% 30.61 in 10.0 mi ESE 4.6 mph - N/A   Clear
5:56 PM 36.0 °F 33.3 °F 17.1 °F 46% 30.60 in 10.0 mi East 3.5 mph - N/A   Clear
6:56 PM 36.0 °F 29.6 °F 16.2 °F 45% 30.57 in 10.0 mi East 8.1 mph - N/A   Clear
7:56 PM 34.9 °F 29.0 °F 16.2 °F 46% 30.59 in 10.0 mi SE 6.9 mph - N/A   Clear
8:56 PM 34.9 °F 29.0 °F 16.2 °F 46% 30.58 in 10.0 mi SE 6.9 mph - N/A   Clear
9:56 PM 34.0 °F 27.2 °F 17.1 °F 50% 30.59 in 10.0 mi SSE 8.1 mph - N/A   Clear
10:56 PM 36.0 °F 27.5 °F 17.1 °F 46% 30.55 in 10.0 mi SSE 12.7 mph - N/A   Clear
11:56 PM 34.9 °F 26.6 °F 17.1 °F 48% 30.58 in 10.0 mi South 11.5 mph - N/A   Clear